[[{"header":{"parameterUnit":"m.s-1","parameterCategory":2,"la1":30.2991,"la2":30.254,"lo1":-89.0895,"lo2":-89.0444,"dy":0.0017,"dx":0.0017,"nx":28,"ny":28,"refTime":"2024-06-07T09:00:00:Z","depth":"0","parameterNumber":2,"parameterNumberName":"U-component_of_CURRENTS"},"data":[0,0,0,0,0,0,0,0,0,0,0,0,0,0,0,0,0,0,0,0,0,0,0,0,0,0,0,0,0,0,0,0,0,0,0,0,0,0,0,0,0,0,0,0,0,0,0,0,0,0,0,0,0,0,0,0,0,0,0.2101,0.2101,0,0.2082,0.2082,0.2081,0.205,0.2049,0.2049,0.2048,0.1996,0.1995,0.1994,0,0,0,0,0,0,0,0,0,0,0,0,0,0.2129,0.2129,0.2101,0.2101,0.2101,0.2082,0.2082,0.2081,0.205,0.2049,0.2049,0.2048,0.1996,0.1995,0.1994,0,0,0,0,0,0,0,0,0,0,0,0,0,0.2113,0.2128,0.2101,0.2084,0.2082,0.2082,0.2082,0.2081,0.205,0.2049,0.2049,0.2048,0.1997,0.1995,0.1994,0.1999,0,0,0.1989,0.1989,0,0,0,0,0,0,0,0,0.2114,0.2112,0.2087,0.2085,0.2083,0.2069,0.2072,0.2052,0.205,0.2061,0.2048,0.2048,0.2019,0.2015,0.2012,0.1996,0.1994,0.1989,0.1988,0.1988,0.1987,0,0,0,0,0,0,0,0.2115,0.2113,0.2092,0.2087,0.2085,0.2084,0.208,0.2068,0.2042,0.206,0.2058,0.2058,0.2017,0.2013,0.201,0.1993,0.1989,0.1988,0.1987,0.1987,0.1999,0.2,0,0,0,0,0,0,0.212,0.2114,0.2093,0.2092,0.2099,0.2084,0.208,0.2073,0.2043,0.2038,0.2059,0.2057,0.2016,0.2012,0.2008,0.202,0.1988,0.1986,0.1986,0.1997,0.1999,0.2,0,0,0,0,0,0,0.212,0.2118,0.2094,0.2104,0.2101,0.2084,0.2077,0.2073,0.2069,0.2043,0.2037,0.2058,0.2015,0.201,0.2005,0.2017,0.1986,0.1984,0.1996,0.1998,0.1999,0.2038,0,0,0,0,0,0,0.2121,0.2118,0.2116,0.2104,0.21,0.2094,0.2077,0.2073,0.207,0.2067,0.204,0.2035,0.2015,0.2008,0.2004,0.2015,0.1983,0.1994,0.1997,0.1999,0.2035,0.2041,0.2046,0,0,0,0,0,0.2122,0.2118,0.2116,0.2113,0.2097,0.2094,0.2092,0.2077,0.2071,0.207,0.2059,0.2035,0.2019,0.2007,0.2003,0.2013,0.1993,0.1996,0.1999,0.2033,0.204,0.2046,0,0,0,0,0,0,0.2127,0.2114,0.2111,0.2103,0.2101,0.2089,0.2088,0.2082,0.2073,0.207,0.2046,0.204,0.2044,0.2027,0.2015,0.2026,0.2005,0.2006,0.2032,0.2039,0.2044,0.2049,0.1982,0,0,0,0,0,0.213,0.2123,0.2116,0.2111,0.2111,0.2103,0.2101,0.2093,0.2084,0.2079,0.2062,0.2052,0.2052,0.2043,0.2038,0.2038,0.2039,0.2045,0.2051,0.2055,0.2059,0.2086,0.2094,0.2009,0.2009,0.2009,0,0,0.2129,0.2123,0.2119,0.2112,0.2109,0.211,0.2099,0.2098,0.21,0.2076,0.2072,0.2069,0.2059,0.2064,0.2064,0.2048,0.208,0.2059,0.2062,0.2063,0.209,0.2098,0.2106,0.2011,0.201,0.201,0,0,0.2128,0.2123,0.2118,0.212,0.2119,0.2117,0.2119,0.2112,0.211,0.2112,0.2103,0.211,0.2096,0.2097,0.2096,0.2128,0.2111,0.2126,0.2148,0.2175,0.2183,0.2189,0.2196,0.2203,0.2123,0.2123,0.2123,0,0.2131,0.212,0.2118,0.2119,0.212,0.2122,0.2122,0.2127,0.2119,0.2123,0.2115,0.2125,0.2115,0.2133,0.2146,0.2139,0.2146,0.2122,0.2182,0.2188,0.2194,0.22,0.2207,0.2125,0.2125,0.2125,0.2125,0,0.2125,0.2121,0.2121,0.2121,0.2126,0.2126,0.2135,0.2142,0.2145,0.2148,0.2168,0.2166,0.2169,0.2175,0.2169,0.2206,0.2196,0.219,0.2164,0.2205,0.2209,0.2215,0.2128,0.2128,0.2127,0.2126,0,0,0.2116,0.2115,0.2115,0.2112,0.2125,0.2124,0.2145,0.2158,0.2172,0.218,0.2199,0.2215,0.2218,0.2219,0.2217,0.2242,0.2289,0.2235,0.2235,0.2239,0.234,0.2262,0.2261,0.2296,0.2298,0.2299,0.2325,0,0.2109,0.2104,0.211,0.211,0.2108,0.2126,0.2142,0.2161,0.2181,0.2202,0.2223,0.224,0.2233,0.2241,0.2268,0.229,0.2309,0.2282,0.2303,0.2304,0.2227,0.2267,0.2119,0.2124,0.2331,0.2332,0.2333,0,0.2097,0.2095,0.2091,0.2098,0.21,0.2106,0.2135,0.215,0.2195,0.2213,0.2244,0.2261,0.2301,0.2291,0.2345,0.233,0.2338,0.2352,0.2353,0.227,0.2238,0.2118,0.2128,0.2039,0.2343,0.2342,0.2341,0,0.2077,0.2079,0.2072,0.2074,0.2089,0.2096,0.2109,0.2151,0.2172,0.2223,0.2248,0.2293,0.2315,0.2351,0.2376,0.2368,0.2433,0.2421,0.2355,0.2349,0.2221,0.22,0.2141,0.2457,0.2457,0.2457,0.2457,0,0.2059,0.2053,0.206,0.2055,0.2056,0.2076,0.2093,0.2119,0.2168,0.2194,0.2247,0.2277,0.2335,0.2375,0.2394,0.2391,0.2444,0.2365,0.2356,0.2229,0.221,0.2124,0.2085,0.2458,0.2458,0.2458,0.2457,0,0.2034,0.2037,0.2029,0.204,0.2043,0.2044,0.2075,0.2091,0.2144,0.2183,0.2202,0.2277,0.2322,0.2368,0.2423,0.2397,0.2317,0.2396,0.2232,0.2202,0.2035,0.2003,0.1859,0.1824,0.2324,0.2322,0.2321,0,0.2019,0.2011,0.2012,0.2007,0.2009,0.2017,0.2025,0.2071,0.2095,0.2175,0.2191,0.2255,0.228,0.2328,0.2303,0.2307,0.2248,0.2162,0.2115,0.2007,0.1967,0.1884,0.1861,0.1964,0.196,0.1956,0.1953,0,0.1995,0.1995,0.1989,0.1976,0.1973,0.1974,0.199,0.2008,0.2064,0.2094,0.2141,0.2171,0.2201,0.2136,0.2129,0.211,0.2003,0.2088,0.2023,0.1716,0.1575,0.1542,0.1963,0.1922,0.1926,0.1928,0.193,0.1931,0.1981,0.1967,0.1955,0.1931,0.1928,0.1917,0.1893,0.1921,0.1935,0.1947,0.2043,0.2023,0.1979,0.1942,0.1911,0.1727,0.1786,0.1639,0.1623,0.156,0.1474,0.1817,0.1736,0.1738,0.174,0.1741,0.1742,0,0.1947,0.1927,0.191,0.1868,0.1829,0.1851,0.185,0.1813,0.1784,0.1819,0.1833,0.174,0.1631,0.1574,0.139,0.1277,0.1227,0.1219,0.1074,0.1095,0.1432,0.1364,0.1139,0.1139,0.1139,0.1139,0.1139,0.1139,0.1931,0.1887,0.186,0.1769,0.1739,0.1668,0.1649,0.161,0.1608,0.1523,0.1446,0.1442,0.1336,0.1095,0.0906,0.0883,0.0816,0.0706,0.0794,0.102,0.1058,0.1095,0.1022,0.0729,0.0729,0.0387,0.0384,0.0382]},{"header":{"parameterUnit":"m.s-1","parameterCategory":2,"la1":30.2991,"la2":30.254,"lo1":-89.0895,"lo2":-89.0444,"dy":0.0017,"dx":0.0017,"nx":28,"ny":28,"refTime":"2024-06-07T09:00:00:Z","depth":"0","parameterNumber":3,"parameterNumberName":"V-component_of_CURRENTS"},"data":[0,0,0,0,0,0,0,0,0,0,0,0,0,0,0,0,0,0,0,0,0,0,0,0,0,0,0,0,0,0,0,0,0,0,0,0,0,0,0,0,0,0,0,0,0,0,0,0,0,0,0,0,0,0,0,0,0,0,0.0322,0.0322,0,0.0326,0.0326,0.0326,0.0318,0.0318,0.0318,0.0318,0.0305,0.0305,0.0305,0,0,0,0,0,0,0,0,0,0,0,0,0,0.0289,0.0289,0.0322,0.0322,0.0322,0.0326,0.0326,0.0326,0.0318,0.0318,0.0318,0.0318,0.0305,0.0305,0.0305,0,0,0,0,0,0,0,0,0,0,0,0,0,0.0299,0.029,0.0322,0.0319,0.0319,0.0326,0.0326,0.0326,0.0319,0.0318,0.0318,0.0318,0.0305,0.0305,0.0304,0.031,0,0,0.0304,0.0304,0,0,0,0,0,0,0,0,0.0298,0.03,0.032,0.0319,0.0319,0.0322,0.031,0.032,0.0319,0.0318,0.0318,0.0317,0.0309,0.0309,0.031,0.0309,0.0309,0.0304,0.0304,0.0304,0.0304,0,0,0,0,0,0,0,0.0297,0.0299,0.0323,0.032,0.032,0.0311,0.0312,0.0312,0.0315,0.0318,0.0318,0.0319,0.0309,0.031,0.031,0.0308,0.0304,0.0304,0.0304,0.0303,0.0306,0.0306,0,0,0,0,0,0,0.0299,0.0299,0.0323,0.0324,0.0308,0.0312,0.0314,0.0321,0.0315,0.0314,0.0319,0.0319,0.0311,0.031,0.0309,0.0322,0.0304,0.0303,0.0303,0.0306,0.0306,0.0306,0,0,0,0,0,0,0.0299,0.0302,0.0323,0.0311,0.0313,0.0313,0.0322,0.0321,0.0323,0.0316,0.0315,0.0322,0.031,0.0309,0.0312,0.0321,0.0303,0.0303,0.0305,0.0306,0.0306,0.0343,0,0,0,0,0,0,0.0298,0.0302,0.0307,0.0312,0.0314,0.0332,0.0322,0.0322,0.0325,0.0324,0.0318,0.0317,0.031,0.0313,0.0312,0.0321,0.0303,0.0305,0.0306,0.0306,0.0342,0.0345,0.0348,0,0,0,0,0,0.0297,0.0308,0.0308,0.031,0.0322,0.0333,0.0334,0.0331,0.0325,0.0331,0.0326,0.0317,0.0314,0.0313,0.0312,0.0321,0.0305,0.0306,0.0306,0.0341,0.0344,0.0347,0,0,0,0,0,0,0.0295,0.0308,0.0308,0.0322,0.0329,0.0332,0.0337,0.0334,0.0335,0.0333,0.0323,0.0322,0.0327,0.0317,0.0316,0.0321,0.0307,0.0307,0.0333,0.0337,0.0339,0.0347,0.0303,0,0,0,0,0,0.0298,0.0311,0.0319,0.033,0.0335,0.0336,0.0339,0.0338,0.034,0.034,0.0334,0.0328,0.0328,0.0327,0.0324,0.033,0.0318,0.0332,0.0335,0.0338,0.0343,0.0337,0.0339,0.0308,0.0308,0.0308,0,0,0.03,0.0309,0.0315,0.0331,0.0335,0.0349,0.0337,0.0346,0.0357,0.0338,0.0348,0.0339,0.0331,0.0338,0.0339,0.0332,0.034,0.0338,0.0341,0.0344,0.0337,0.034,0.0343,0.0308,0.0308,0.0308,0,0,0.0313,0.0319,0.0335,0.0344,0.0355,0.0358,0.0362,0.0367,0.0368,0.0377,0.0365,0.0362,0.0361,0.0358,0.0357,0.0372,0.0355,0.0368,0.039,0.0384,0.0387,0.0389,0.0375,0.0376,0.0369,0.0369,0.0369,0,0.0314,0.0339,0.0341,0.0359,0.0371,0.0365,0.0385,0.0388,0.0391,0.0398,0.0385,0.0384,0.0373,0.0385,0.0387,0.038,0.037,0.038,0.0389,0.0391,0.0393,0.0377,0.0378,0.0371,0.0371,0.0371,0.037,0,0.0342,0.0361,0.0371,0.0396,0.0406,0.0423,0.0429,0.0437,0.0435,0.0436,0.0444,0.0426,0.0426,0.0419,0.0409,0.0417,0.0403,0.0394,0.0383,0.0398,0.0381,0.0381,0.0374,0.0373,0.0373,0.0372,0,0,0.0349,0.0385,0.0389,0.041,0.0429,0.0444,0.0463,0.0484,0.0502,0.0492,0.0512,0.0498,0.0481,0.0478,0.0459,0.045,0.0447,0.0428,0.0427,0.0419,0.0429,0.0438,0.0438,0.0441,0.0441,0.0441,0.0411,0,0.0372,0.0417,0.0427,0.0469,0.0493,0.0499,0.0521,0.0536,0.054,0.0556,0.0536,0.0545,0.0506,0.0506,0.049,0.0465,0.0449,0.0456,0.0411,0.041,0.042,0.044,0.0495,0.0475,0.041,0.041,0.041,0,0.04,0.0428,0.0473,0.0517,0.0528,0.0549,0.0587,0.0607,0.0622,0.0626,0.0622,0.0605,0.0593,0.0556,0.0512,0.0519,0.0475,0.0447,0.0445,0.0442,0.0419,0.0449,0.0476,0.0474,0.0409,0.041,0.041,0,0.0414,0.0462,0.0502,0.0516,0.056,0.0582,0.0604,0.0628,0.0659,0.0671,0.0692,0.0663,0.0662,0.0606,0.0539,0.0528,0.0489,0.0466,0.043,0.0429,0.0462,0.0464,0.0488,0.043,0.043,0.043,0.043,0,0.044,0.0472,0.0513,0.0537,0.0589,0.0606,0.0659,0.0677,0.0712,0.0761,0.0728,0.0757,0.0676,0.0642,0.0565,0.0504,0.0506,0.044,0.0428,0.0476,0.0479,0.0467,0.0458,0.0429,0.0429,0.043,0.043,0,0.0454,0.0479,0.0529,0.0579,0.0599,0.0636,0.0703,0.0743,0.0767,0.0831,0.0841,0.0834,0.0801,0.071,0.0628,0.0552,0.0493,0.0453,0.0511,0.0507,0.0473,0.0464,0.0468,0.0484,0.0414,0.0414,0.0414,0,0.0465,0.0493,0.0559,0.0594,0.062,0.0677,0.0724,0.0768,0.0819,0.0887,0.0925,0.0913,0.0926,0.0804,0.0682,0.0559,0.0521,0.0506,0.0493,0.049,0.047,0.0464,0.0476,0.0544,0.0546,0.0546,0.0547,0,0.0488,0.051,0.0554,0.0626,0.068,0.0748,0.0818,0.087,0.0936,0.0996,0.1071,0.1088,0.0998,0.0928,0.0758,0.0658,0.0545,0.0521,0.0512,0.0575,0.0578,0.0581,0.0534,0.0556,0.0555,0.0554,0.0554,0.0554,0.0504,0.0537,0.0596,0.0664,0.073,0.0815,0.0877,0.0961,0.106,0.1163,0.1177,0.1231,0.1142,0.094,0.081,0.0638,0.0618,0.0585,0.0572,0.0563,0.0596,0.0564,0.0577,0.0576,0.0575,0.0575,0.0574,0,0.0526,0.0568,0.0631,0.0717,0.0789,0.0823,0.094,0.101,0.1133,0.1239,0.1311,0.1331,0.1224,0.1057,0.0846,0.0728,0.0675,0.0651,0.0665,0.0672,0.0643,0.0668,0.0711,0.0711,0.0711,0.0711,0.0711,0.0711,0.0539,0.0598,0.0632,0.075,0.0812,0.0914,0.0982,0.1096,0.1197,0.1331,0.1394,0.1425,0.1351,0.1062,0.0863,0.0786,0.074,0.0707,0.0671,0.066,0.0653,0.0646,0.0668,0.0711,0.0711,0.0738,0.0738,0.0738]}],[{"header":{"parameterUnit":"m.s-1","parameterCategory":2,"la1":30.2991,"la2":30.254,"lo1":-89.0895,"lo2":-89.0444,"dy":0.0017,"dx":0.0017,"nx":28,"ny":28,"refTime":"2024-06-07T09:00:00:Z","depth":"2","parameterNumber":2,"parameterNumberName":"U-component_of_CURRENTS"},"data":[0,0,0,0,0,0,0,0,0,0,0,0,0,0,0,0,0,0,0,0,0,0,0,0,0,0,0,0,0,0,0,0,0,0,0,0,0,0,0,0,0,0,0,0,0,0,0,0,0,0,0,0,0,0,0,0,0,0,0.1745,0.1745,0,0.1737,0.1737,0.1737,0.1723,0.1723,0.1723,0.1722,0.1704,0.1704,0.1703,0,0,0,0,0,0,0,0,0,0,0,0,0,0.1766,0.1765,0.1745,0.1745,0.1745,0.1737,0.1737,0.1737,0.1723,0.1723,0.1722,0.1722,0.1704,0.1704,0.1703,0,0,0,0,0,0,0,0,0,0,0,0,0,0.1756,0.1765,0.1745,0.1738,0.1737,0.1738,0.1737,0.1737,0.1723,0.1723,0.1722,0.1722,0.1704,0.1704,0.1703,0.1706,0,0,0.1702,0.1702,0,0,0,0,0,0,0,0,0.1757,0.1755,0.1739,0.1738,0.1737,0.1732,0.1738,0.1727,0.1723,0.1727,0.1722,0.1722,0.1713,0.1712,0.171,0.1705,0.1705,0.1702,0.1701,0.1701,0.1701,0,0,0,0,0,0,0,0.1757,0.1756,0.1741,0.1739,0.1738,0.1741,0.1739,0.1736,0.1721,0.1727,0.1726,0.1727,0.1712,0.171,0.1709,0.1704,0.1702,0.1701,0.1701,0.1701,0.1732,0.1733,0,0,0,0,0,0,0.1759,0.1756,0.1741,0.1741,0.1747,0.1741,0.1739,0.1733,0.1721,0.172,0.1727,0.1726,0.1711,0.171,0.1709,0.1732,0.1701,0.1701,0.1701,0.1731,0.1732,0.1734,0,0,0,0,0,0,0.176,0.1758,0.1742,0.175,0.1748,0.1741,0.1735,0.1733,0.1737,0.1722,0.1719,0.1733,0.1711,0.1709,0.1716,0.1731,0.1701,0.17,0.173,0.1731,0.1733,0.1767,0,0,0,0,0,0,0.176,0.1758,0.1758,0.1749,0.1747,0.1745,0.1735,0.1733,0.1738,0.1736,0.1726,0.1724,0.1711,0.1717,0.1715,0.173,0.17,0.1728,0.1731,0.1732,0.1764,0.177,0.1774,0,0,0,0,0,0.1761,0.1758,0.1758,0.1757,0.1747,0.1746,0.1745,0.1739,0.1738,0.1741,0.1739,0.1724,0.1729,0.1717,0.1715,0.173,0.1727,0.173,0.1732,0.1762,0.1769,0.1774,0,0,0,0,0,0,0.1767,0.1757,0.1756,0.1751,0.1752,0.1744,0.1747,0.1746,0.1747,0.1748,0.1735,0.1732,0.1746,0.1736,0.1723,0.1747,0.1727,0.173,0.1751,0.1757,0.1761,0.1765,0.1699,0,0,0,0,0,0.177,0.1765,0.176,0.1758,0.176,0.1757,0.1758,0.1756,0.1754,0.1754,0.1748,0.1747,0.1755,0.1754,0.1755,0.1764,0.1765,0.1775,0.1779,0.1783,0.1787,0.1813,0.182,0.1742,0.1742,0.1742,0,0,0.1771,0.1766,0.1764,0.176,0.176,0.1764,0.1757,0.1761,0.1767,0.1752,0.176,0.1764,0.1763,0.1775,0.178,0.1767,0.1806,0.1786,0.179,0.1791,0.1816,0.1824,0.183,0.1743,0.1743,0.1743,0,0,0.1772,0.177,0.1767,0.177,0.1774,0.1774,0.1778,0.1777,0.178,0.1791,0.1788,0.1802,0.1803,0.1808,0.1811,0.1844,0.1833,0.1846,0.1868,0.1893,0.19,0.1905,0.1912,0.1918,0.1845,0.1845,0.1845,0,0.1777,0.1769,0.1769,0.1771,0.1774,0.178,0.1783,0.1792,0.1793,0.1802,0.1799,0.1823,0.1821,0.1844,0.1857,0.1854,0.1862,0.1844,0.1899,0.1905,0.191,0.1915,0.1921,0.1847,0.1847,0.1846,0.1846,0,0.1773,0.1773,0.1774,0.1777,0.1784,0.1788,0.1799,0.1812,0.1822,0.1829,0.1857,0.1862,0.1875,0.1883,0.188,0.1918,0.1909,0.1904,0.1882,0.192,0.1923,0.1929,0.185,0.1849,0.1848,0.1848,0,0,0.1766,0.1769,0.177,0.1771,0.1787,0.1788,0.1814,0.1831,0.1849,0.1865,0.189,0.1913,0.192,0.1925,0.1928,0.1952,0.1994,0.1947,0.1947,0.1949,0.2043,0.1963,0.1961,0.2003,0.2004,0.2006,0.2028,0,0.1763,0.1762,0.1769,0.1775,0.1775,0.1796,0.1816,0.1839,0.1863,0.189,0.1915,0.1939,0.1935,0.1948,0.1973,0.1995,0.2013,0.1988,0.201,0.201,0.1931,0.1966,0.1779,0.1777,0.2033,0.2034,0.2035,0,0.1752,0.1754,0.1755,0.1767,0.1771,0.1782,0.1816,0.1836,0.1885,0.1906,0.1942,0.1962,0.2005,0.1996,0.2047,0.2033,0.2041,0.2053,0.2054,0.1971,0.1941,0.1783,0.1778,0.2044,0.2044,0.2043,0.2042,0,0.1733,0.1741,0.174,0.1744,0.1765,0.1778,0.1796,0.1841,0.1865,0.1922,0.195,0.1996,0.2022,0.2055,0.2077,0.2071,0.2128,0.2117,0.2048,0.2042,0.1881,0.1858,0.215,0.215,0.215,0.215,0.215,0,0.1717,0.1716,0.1731,0.1729,0.1738,0.1762,0.1787,0.1817,0.1871,0.1898,0.1954,0.1983,0.2042,0.2078,0.2094,0.2085,0.2138,0.2057,0.2047,0.1887,0.1865,0.2095,0.2088,0.2151,0.2151,0.215,0.215,0,0.1691,0.17,0.1699,0.1719,0.1726,0.1734,0.1775,0.1795,0.1852,0.1895,0.1917,0.1988,0.2028,0.2071,0.2119,0.2091,0.2102,0.2082,0.188,0.1846,0.1995,0.199,0.201,0.2007,0.2005,0.2003,0.2002,0,0.1675,0.1671,0.1685,0.1686,0.1694,0.1713,0.1727,0.1779,0.1804,0.1886,0.1901,0.1964,0.1977,0.2015,0.1985,0.1982,0.2057,0.1801,0.1751,0.1994,0.1983,0.1982,0.198,0.1552,0.1547,0.1543,0.154,0,0.1648,0.1656,0.1656,0.1656,0.1663,0.167,0.1695,0.1712,0.1772,0.1801,0.184,0.1861,0.188,0.1778,0.1767,0.1747,0.1787,0.1715,0.2031,0.1615,0.1564,0.1553,0.1566,0.1503,0.1506,0.1509,0.1511,0.1513,0.1633,0.1623,0.1623,0.1613,0.162,0.1614,0.1594,0.1622,0.1633,0.164,0.1722,0.1674,0.1664,0.1543,0.1483,0.143,0.1571,0.1488,0.1501,0.1518,0.1459,0.1406,0.1304,0.1307,0.1309,0.1311,0.1312,0,0.1597,0.1587,0.1579,0.1553,0.1525,0.1555,0.1554,0.1514,0.148,0.1495,0.1493,0.1339,0.1236,0.1238,0.1083,0.1065,0.1059,0.1025,0.0998,0.1035,0.1068,0.0986,0.0706,0.0704,0.0703,0.0701,0,0,0.1581,0.1547,0.1527,0.1455,0.144,0.1381,0.1362,0.1314,0.1294,0.1221,0.1155,0.1209,0.1207,0.0957,0.0904,0.0776,0.091,0.0741,0.1226,0.1233,0.1264,0.1329,0.1244,0,0,0,0,0]},{"header":{"parameterUnit":"m.s-1","parameterCategory":2,"la1":30.2991,"la2":30.254,"lo1":-89.0895,"lo2":-89.0444,"dy":0.0017,"dx":0.0017,"nx":28,"ny":28,"refTime":"2024-06-07T09:00:00:Z","depth":"2","parameterNumber":3,"parameterNumberName":"V-component_of_CURRENTS"},"data":[0,0,0,0,0,0,0,0,0,0,0,0,0,0,0,0,0,0,0,0,0,0,0,0,0,0,0,0,0,0,0,0,0,0,0,0,0,0,0,0,0,0,0,0,0,0,0,0,0,0,0,0,0,0,0,0,0,0,0.0258,0.0258,0,0.0262,0.0262,0.0262,0.0257,0.0257,0.0257,0.0257,0.0249,0.0249,0.0249,0,0,0,0,0,0,0,0,0,0,0,0,0,0.0228,0.0229,0.0258,0.0258,0.0258,0.0262,0.0262,0.0262,0.0257,0.0257,0.0257,0.0256,0.0249,0.0249,0.0249,0,0,0,0,0,0,0,0,0,0,0,0,0,0.0238,0.0229,0.0258,0.0256,0.0256,0.0262,0.0262,0.0262,0.0257,0.0257,0.0257,0.0256,0.0249,0.0249,0.0249,0.0253,0,0,0.0248,0.0248,0,0,0,0,0,0,0,0,0.0237,0.0239,0.0256,0.0256,0.0256,0.0259,0.0249,0.0258,0.0257,0.0257,0.0257,0.0256,0.0251,0.0251,0.0252,0.0253,0.0252,0.0248,0.0248,0.0248,0.0248,0,0,0,0,0,0,0,0.0237,0.0238,0.0259,0.0256,0.0256,0.0249,0.025,0.025,0.0255,0.0257,0.0256,0.0257,0.0251,0.0252,0.0252,0.0252,0.0248,0.0248,0.0248,0.0248,0.0252,0.0252,0,0,0,0,0,0,0.0238,0.0238,0.0259,0.0259,0.0246,0.025,0.0251,0.0258,0.0255,0.0255,0.0257,0.0257,0.0253,0.0252,0.0252,0.0264,0.0248,0.0248,0.0248,0.0252,0.0252,0.0252,0,0,0,0,0,0,0.0237,0.024,0.0259,0.0248,0.025,0.0251,0.0258,0.0258,0.0261,0.0256,0.0255,0.026,0.0252,0.0252,0.0256,0.0264,0.0248,0.0248,0.0252,0.0252,0.0252,0.0285,0,0,0,0,0,0,0.0236,0.024,0.0245,0.0249,0.0251,0.0267,0.0259,0.0258,0.0261,0.0261,0.0258,0.0257,0.0252,0.0256,0.0255,0.0263,0.0248,0.0251,0.0252,0.0252,0.0284,0.0287,0.0289,0,0,0,0,0,0.0235,0.0245,0.0245,0.0248,0.0259,0.0267,0.0268,0.0267,0.0262,0.0267,0.0264,0.0257,0.0257,0.0256,0.0256,0.0264,0.0251,0.0252,0.0252,0.0283,0.0286,0.0289,0,0,0,0,0,0,0.0234,0.0246,0.0246,0.0258,0.0264,0.0267,0.0271,0.0269,0.0271,0.027,0.0262,0.0262,0.0267,0.026,0.0259,0.0264,0.0252,0.0252,0.0275,0.0278,0.028,0.0288,0.0248,0,0,0,0,0,0.0237,0.0249,0.0255,0.0265,0.0269,0.027,0.0273,0.0273,0.0275,0.0275,0.0271,0.0267,0.0268,0.0269,0.0267,0.0272,0.0262,0.0275,0.0278,0.028,0.0285,0.0279,0.0282,0.0253,0.0253,0.0253,0,0,0.0238,0.0247,0.0252,0.0266,0.027,0.0283,0.0272,0.0279,0.029,0.0274,0.0285,0.0277,0.0271,0.0278,0.028,0.0273,0.0281,0.028,0.0282,0.0286,0.028,0.0283,0.0285,0.0254,0.0253,0.0253,0,0,0.025,0.0256,0.0271,0.0279,0.0288,0.0291,0.0294,0.0298,0.03,0.031,0.03,0.0297,0.0298,0.0296,0.0296,0.031,0.0294,0.0306,0.0326,0.032,0.0323,0.0325,0.031,0.0311,0.0307,0.0307,0.0307,0,0.0251,0.0274,0.0275,0.0292,0.0303,0.0297,0.0316,0.0319,0.0322,0.0329,0.0317,0.0318,0.0309,0.0321,0.0323,0.0317,0.0307,0.0318,0.0325,0.0326,0.0328,0.0312,0.0312,0.0309,0.0308,0.0308,0.0308,0,0.0277,0.0294,0.0304,0.0326,0.0336,0.0351,0.0357,0.0364,0.0363,0.0365,0.0373,0.0357,0.0358,0.0352,0.0342,0.035,0.0337,0.0329,0.0319,0.0333,0.0315,0.0315,0.0311,0.031,0.031,0.0309,0,0,0.0283,0.0316,0.0321,0.0341,0.0357,0.0371,0.0389,0.0409,0.0426,0.0417,0.0437,0.0424,0.0409,0.0406,0.0389,0.0381,0.0376,0.036,0.0359,0.035,0.0358,0.0361,0.0361,0.0371,0.0371,0.0371,0.0339,0,0.0305,0.0346,0.0356,0.0395,0.0418,0.0423,0.0445,0.0459,0.0463,0.0477,0.046,0.0469,0.0433,0.0433,0.0418,0.0393,0.0377,0.0385,0.0342,0.0341,0.0347,0.0362,0.0376,0.035,0.0338,0.0338,0.0338,0,0.033,0.0357,0.04,0.0442,0.0453,0.0472,0.0509,0.0528,0.0542,0.0545,0.0541,0.0525,0.0514,0.048,0.0436,0.0443,0.0402,0.0375,0.0373,0.0366,0.0345,0.0335,0.0349,0.0337,0.0337,0.0337,0.0337,0,0.0345,0.039,0.0428,0.0442,0.0484,0.0506,0.0527,0.0548,0.0577,0.0589,0.0607,0.058,0.0578,0.0525,0.0461,0.0451,0.0411,0.0391,0.0351,0.035,0.0349,0.0349,0.0356,0.0356,0.0356,0.0356,0.0357,0,0.037,0.0401,0.0439,0.0463,0.0513,0.053,0.0581,0.0597,0.0629,0.0673,0.0641,0.0665,0.059,0.0556,0.0484,0.0421,0.0426,0.036,0.0348,0.036,0.0361,0.034,0.0338,0.0355,0.0355,0.0356,0.0356,0,0.0384,0.0408,0.0456,0.0504,0.0524,0.056,0.0623,0.066,0.0682,0.0737,0.0747,0.0735,0.0699,0.0614,0.0535,0.0464,0.0396,0.0368,0.0384,0.0374,0.0329,0.033,0.0324,0.0324,0.0324,0.0324,0.0324,0,0.0396,0.0423,0.0486,0.0518,0.0543,0.0599,0.0643,0.0685,0.073,0.0786,0.0819,0.0801,0.0801,0.0682,0.0565,0.0448,0.0413,0.0368,0.0352,0.034,0.0328,0.0329,0.0329,0.0356,0.0356,0.0356,0.0357,0,0.0419,0.044,0.0482,0.0548,0.0599,0.0664,0.0729,0.0776,0.0834,0.0881,0.0936,0.094,0.0847,0.0747,0.0588,0.0499,0.0389,0.0369,0.0359,0.0367,0.037,0.0358,0.0358,0.0358,0.0358,0.0358,0.0358,0.0358,0.0435,0.0465,0.0519,0.0583,0.0645,0.0723,0.0778,0.085,0.0932,0.1003,0.1011,0.1012,0.0903,0.0711,0.0575,0.0419,0.0427,0.0352,0.0352,0.0351,0.0366,0.0369,0.0359,0.0359,0.0359,0.0359,0.0359,0,0.0454,0.0492,0.0549,0.0628,0.0694,0.0727,0.0833,0.0888,0.0983,0.104,0.1081,0.0966,0.087,0.0727,0.0523,0.0402,0.0375,0.0334,0.0338,0.0338,0.0337,0.0351,0.034,0.034,0.0339,0.0339,0,0,0.0464,0.0515,0.0546,0.0652,0.071,0.0801,0.0861,0.0947,0.1008,0.1055,0.1054,0.1059,0.0912,0.075,0.0594,0.0473,0.0421,0.0431,0.0462,0.0486,0.0486,0.0367,0.0392,0,0,0,0,0]}],[{"header":{"parameterUnit":"m.s-1","parameterCategory":2,"la1":30.2991,"la2":30.254,"lo1":-89.0895,"lo2":-89.0444,"dy":0.0017,"dx":0.0017,"nx":28,"ny":28,"refTime":"2024-06-07T09:00:00:Z","depth":"4","parameterNumber":2,"parameterNumberName":"U-component_of_CURRENTS"},"data":[0,0,0,0,0,0,0,0,0,0,0,0,0,0,0,0,0,0,0,0,0,0,0,0,0,0,0,0,0,0,0,0,0,0,0,0,0,0,0,0,0,0,0,0,0,0,0,0,0,0,0,0,0,0,0,0,0,0,0.1095,0.1095,0,0.112,0.112,0.112,0.1148,0.1148,0.1148,0.1149,0.1193,0.1194,0.1195,0,0,0,0,0,0,0,0,0,0,0,0,0,0.1081,0.1081,0.1095,0.1095,0.1096,0.112,0.112,0.112,0.1147,0.1148,0.1149,0.1149,0.1193,0.1194,0.1195,0,0,0,0,0,0,0,0,0,0,0,0,0,0.1094,0.1081,0.1095,0.1113,0.1115,0.112,0.112,0.112,0.1147,0.1148,0.1149,0.1149,0.1193,0.1194,0.1195,0.1188,0,0,0.1198,0.1199,0,0,0,0,0,0,0,0,0.1093,0.1094,0.111,0.1112,0.1114,0.1132,0.1132,0.1144,0.1147,0.1134,0.1149,0.115,0.1175,0.1177,0.1179,0.119,0.1192,0.1199,0.1199,0.12,0.12,0,0,0,0,0,0,0,0.1092,0.1094,0.1104,0.111,0.1112,0.1123,0.1125,0.1134,0.115,0.1135,0.1138,0.1141,0.1176,0.1178,0.118,0.1193,0.1199,0.12,0.12,0.1201,0.1272,0.1273,0,0,0,0,0,0,0.1089,0.1093,0.1103,0.1105,0.1106,0.1123,0.1125,0.1125,0.115,0.1154,0.1141,0.1142,0.1176,0.1179,0.1182,0.1237,0.12,0.1201,0.1201,0.1271,0.1272,0.1273,0,0,0,0,0,0,0.1089,0.109,0.1102,0.11,0.1103,0.1122,0.1121,0.1125,0.1151,0.1153,0.1158,0.1166,0.1176,0.1181,0.1212,0.1237,0.1201,0.1202,0.1269,0.1271,0.1273,0.1307,0,0,0,0,0,0,0.1088,0.1089,0.1101,0.11,0.1103,0.1119,0.1121,0.1125,0.1151,0.1154,0.1176,0.118,0.1177,0.121,0.1213,0.1238,0.1203,0.1268,0.127,0.1272,0.1305,0.131,0.1315,0,0,0,0,0,0.1088,0.1094,0.1101,0.1104,0.1114,0.112,0.1123,0.1138,0.1152,0.1165,0.1184,0.118,0.1227,0.1212,0.1215,0.124,0.1267,0.1269,0.1272,0.1302,0.1309,0.1315,0,0,0,0,0,0,0.1096,0.1097,0.1106,0.1114,0.1124,0.1125,0.1142,0.1152,0.1176,0.1189,0.1193,0.1197,0.1235,0.1234,0.1217,0.1269,0.1248,0.1251,0.127,0.1276,0.1281,0.128,0.1204,0,0,0,0,0,0.1102,0.111,0.1112,0.1124,0.113,0.1142,0.1153,0.1163,0.1177,0.119,0.1204,0.1224,0.1243,0.1258,0.1271,0.1297,0.1296,0.1317,0.1322,0.1326,0.1329,0.1354,0.1362,0.1282,0.1282,0.1282,0,0,0.111,0.1113,0.1119,0.1127,0.1139,0.1149,0.1151,0.1172,0.119,0.119,0.1228,0.1243,0.1255,0.1285,0.1302,0.1291,0.1348,0.1329,0.1333,0.1333,0.1358,0.1365,0.1372,0.1284,0.1284,0.1284,0,0,0.1119,0.1132,0.1139,0.1149,0.1168,0.1172,0.1184,0.1199,0.1218,0.125,0.1258,0.1289,0.1317,0.1328,0.1337,0.1379,0.1374,0.139,0.1415,0.144,0.1446,0.1452,0.1456,0.1462,0.1392,0.1392,0.1392,0,0.1133,0.1136,0.1144,0.1154,0.1166,0.1185,0.1198,0.1217,0.1243,0.1262,0.127,0.1324,0.1335,0.137,0.1388,0.139,0.1398,0.1389,0.1446,0.1451,0.1457,0.146,0.1466,0.1394,0.1394,0.1393,0.1393,0,0.1136,0.1151,0.1159,0.1175,0.1191,0.1207,0.1227,0.1256,0.1285,0.1301,0.1352,0.137,0.1401,0.1414,0.1416,0.1461,0.1453,0.1448,0.1428,0.1467,0.1468,0.1473,0.1397,0.1396,0.1395,0.1395,0,0,0.1132,0.1156,0.1162,0.1173,0.1205,0.1212,0.1253,0.1284,0.1315,0.1353,0.1393,0.1433,0.145,0.1462,0.1472,0.1496,0.1539,0.1494,0.1494,0.1493,0.1587,0.1461,0.1454,0.155,0.1551,0.1553,0.1571,0,0.1136,0.1152,0.1167,0.1193,0.1202,0.1236,0.1268,0.1304,0.1343,0.1386,0.1423,0.1464,0.1465,0.1491,0.1517,0.1539,0.1557,0.1534,0.1554,0.1554,0.1433,0.1458,0.1557,0.1575,0.1576,0.1577,0.1577,0,0.1128,0.1141,0.1165,0.1198,0.1207,0.1233,0.1288,0.1319,0.1383,0.1416,0.1466,0.1494,0.1546,0.154,0.1592,0.1581,0.1589,0.1598,0.1598,0.1471,0.1438,0.153,0.1587,0.1587,0.1586,0.1585,0.1584,0,0.1104,0.1137,0.1157,0.1169,0.1212,0.1242,0.1275,0.1335,0.1368,0.1444,0.1478,0.1535,0.1573,0.1602,0.1624,0.162,0.1669,0.166,0.1548,0.1539,0.1633,0.1627,0.1691,0.1691,0.1691,0.169,0.169,0,0.1083,0.1102,0.1153,0.1162,0.1196,0.1235,0.1284,0.1326,0.1394,0.1427,0.1495,0.1523,0.1595,0.1627,0.1639,0.1603,0.168,0.1551,0.1536,0.1646,0.1641,0.1636,0.163,0.1691,0.1691,0.1691,0.1691,0,0.1047,0.1081,0.1106,0.1162,0.1184,0.1212,0.1284,0.1312,0.1386,0.1435,0.1464,0.1535,0.1566,0.1611,0.1654,0.1603,0.1595,0.1563,0.1671,0.1663,0.1446,0.1441,0.1435,0.143,0.1427,0.1424,0.1421,0,0.1024,0.1036,0.1102,0.1122,0.1153,0.1202,0.1233,0.1305,0.1331,0.142,0.143,0.1493,0.1527,0.1484,0.1538,0.1536,0.1518,0.1497,0.1472,0.1433,0.1421,0.1422,0.1422,0.1415,0.1415,0.1414,0.1413,0,0.0984,0.1022,0.1045,0.1087,0.1124,0.1152,0.1201,0.121,0.1285,0.1362,0.1359,0.1365,0.1388,0.1403,0.1408,0.1408,0.1503,0.1458,0.1466,0.1442,0.141,0.1401,0.1406,0.14,0.1402,0.1403,0.1404,0,0.0963,0.097,0.1011,0.1034,0.1079,0.1083,0.1117,0.1133,0.1164,0.1254,0.1246,0.1308,0.1372,0.1335,0.1344,0.1328,0.1304,0.1255,0.1273,0.1288,0.1229,0.1165,0.1065,0,0,0,0,0,0.0932,0.0928,0.095,0.0965,0.1004,0.1027,0.1082,0.1116,0.1185,0.1148,0.1192,0.1203,0.1194,0.1224,0.1177,0.1279,0.1317,0.1217,0.1273,0.133,0.1345,0.1287,0,0,0,0,0,0,0.091,0.0932,0.0926,0.0899,0.0897,0.0926,0.0959,0.1008,0.0989,0.1065,0.107,0.1119,0.1138,0.121,0.1152,0.116,0.1165,0.1254,0.125,0.1322,0.1335,0.1347,0.1293,0,0,0,0,0]},{"header":{"parameterUnit":"m.s-1","parameterCategory":2,"la1":30.2991,"la2":30.254,"lo1":-89.0895,"lo2":-89.0444,"dy":0.0017,"dx":0.0017,"nx":28,"ny":28,"refTime":"2024-06-07T09:00:00:Z","depth":"4","parameterNumber":3,"parameterNumberName":"V-component_of_CURRENTS"},"data":[0,0,0,0,0,0,0,0,0,0,0,0,0,0,0,0,0,0,0,0,0,0,0,0,0,0,0,0,0,0,0,0,0,0,0,0,0,0,0,0,0,0,0,0,0,0,0,0,0,0,0,0,0,0,0,0,0,0,0.0205,0.0205,0,0.0213,0.0213,0.0213,0.0216,0.0216,0.0216,0.0216,0.022,0.022,0.022,0,0,0,0,0,0,0,0,0,0,0,0,0,0.0181,0.0182,0.0205,0.0205,0.0205,0.0213,0.0213,0.0213,0.0216,0.0216,0.0216,0.0216,0.022,0.022,0.022,0,0,0,0,0,0,0,0,0,0,0,0,0,0.0191,0.0182,0.0205,0.0208,0.0208,0.0213,0.0213,0.0213,0.0216,0.0216,0.0216,0.0216,0.022,0.022,0.022,0.0221,0,0,0.022,0.022,0,0,0,0,0,0,0,0,0.019,0.0191,0.0207,0.0208,0.0208,0.0213,0.0205,0.0215,0.0216,0.0213,0.0216,0.0216,0.0217,0.0217,0.0219,0.0222,0.0222,0.022,0.022,0.0221,0.0221,0,0,0,0,0,0,0,0.0189,0.0191,0.0208,0.0207,0.0208,0.0204,0.0206,0.0207,0.0215,0.0214,0.0214,0.0214,0.0217,0.0219,0.0219,0.0222,0.022,0.0221,0.0221,0.0221,0.023,0.023,0,0,0,0,0,0,0.0189,0.0191,0.0208,0.0208,0.0199,0.0205,0.0206,0.0212,0.0215,0.0216,0.0214,0.0215,0.0219,0.0219,0.0219,0.0235,0.0221,0.0221,0.0221,0.0229,0.023,0.023,0,0,0,0,0,0,0.0189,0.0191,0.0208,0.0199,0.0201,0.0205,0.0211,0.0212,0.0218,0.0216,0.0217,0.022,0.0219,0.0219,0.0226,0.0234,0.0221,0.0221,0.0229,0.023,0.023,0.0257,0,0,0,0,0,0,0.0188,0.0191,0.0196,0.0199,0.0202,0.0215,0.0211,0.0212,0.0218,0.0218,0.0221,0.0221,0.0219,0.0226,0.0226,0.0234,0.0221,0.0229,0.0229,0.023,0.0256,0.0258,0.026,0,0,0,0,0,0.0187,0.0195,0.0197,0.0199,0.0209,0.0215,0.0217,0.0219,0.0218,0.0223,0.0225,0.0221,0.0228,0.0227,0.0227,0.0235,0.0229,0.0229,0.023,0.0255,0.0257,0.026,0,0,0,0,0,0,0.0187,0.0196,0.0198,0.0208,0.0213,0.0216,0.0222,0.0222,0.0227,0.0229,0.0226,0.0226,0.0234,0.023,0.0228,0.0237,0.0226,0.0227,0.0245,0.0248,0.025,0.0256,0.0221,0,0,0,0,0,0.019,0.02,0.0205,0.0214,0.0217,0.022,0.0223,0.0225,0.0229,0.0232,0.0232,0.0232,0.0235,0.0238,0.0238,0.0245,0.0236,0.0249,0.0251,0.0253,0.0257,0.0253,0.0255,0.0231,0.0231,0.0231,0,0,0.0191,0.0198,0.0203,0.0214,0.0219,0.023,0.0222,0.023,0.0241,0.0231,0.0245,0.024,0.0238,0.0247,0.0249,0.0245,0.0253,0.0253,0.0255,0.0259,0.0253,0.0256,0.0258,0.0231,0.0231,0.0231,0,0,0.0201,0.0207,0.0219,0.0226,0.0235,0.0238,0.0241,0.0246,0.0252,0.0263,0.0257,0.0258,0.0263,0.0263,0.0264,0.0276,0.0263,0.0274,0.0292,0.0287,0.0289,0.0291,0.0276,0.0276,0.0275,0.0276,0.0276,0,0.0203,0.0222,0.0223,0.0237,0.0247,0.0243,0.026,0.0264,0.0271,0.0279,0.0271,0.0277,0.0272,0.0285,0.0287,0.0282,0.0273,0.0285,0.029,0.0292,0.0293,0.0278,0.0278,0.0277,0.0277,0.0277,0.0276,0,0.0222,0.0239,0.0246,0.0265,0.0274,0.0287,0.0294,0.0303,0.0306,0.0309,0.032,0.0311,0.0315,0.031,0.0304,0.0311,0.0299,0.0293,0.0286,0.0298,0.028,0.0279,0.0279,0.0278,0.0278,0.0278,0,0,0.0227,0.0255,0.0259,0.0278,0.0293,0.0305,0.0322,0.0341,0.0358,0.0354,0.0374,0.0368,0.0358,0.0357,0.0344,0.0337,0.0333,0.0321,0.032,0.0309,0.0315,0.0303,0.0301,0.0329,0.0329,0.033,0.0297,0,0.0244,0.0278,0.0287,0.0322,0.0341,0.0349,0.0369,0.0383,0.0389,0.0405,0.0394,0.0405,0.0377,0.038,0.0368,0.0347,0.0334,0.0342,0.0303,0.0302,0.0293,0.0301,0.033,0.0296,0.0296,0.0296,0.0296,0,0.0263,0.0285,0.0323,0.0361,0.0371,0.039,0.0425,0.0443,0.0458,0.0464,0.0464,0.0453,0.0446,0.0419,0.0383,0.039,0.0354,0.033,0.0328,0.0309,0.0289,0.0283,0.0295,0.0295,0.0295,0.0295,0.0295,0,0.0272,0.0312,0.0346,0.0358,0.0397,0.042,0.0441,0.0462,0.0488,0.0502,0.0518,0.0499,0.05,0.0455,0.0401,0.0394,0.0357,0.0342,0.0294,0.0292,0.03,0.0299,0.0312,0.0312,0.0312,0.0312,0.0312,0,0.0289,0.0317,0.0356,0.0376,0.0423,0.0441,0.0489,0.0505,0.0535,0.0569,0.0549,0.0563,0.051,0.048,0.0419,0.0357,0.0369,0.0299,0.0287,0.031,0.0311,0.0299,0.0298,0.0311,0.0311,0.0311,0.0312,0,0.0296,0.0319,0.0363,0.041,0.0431,0.0465,0.0526,0.0557,0.058,0.0623,0.0632,0.062,0.0583,0.0519,0.0451,0.0388,0.0326,0.0297,0.0326,0.0315,0.0256,0.0256,0.0242,0.0241,0.024,0.024,0.024,0,0.0302,0.0326,0.0388,0.0417,0.0443,0.0497,0.0537,0.0579,0.0613,0.0654,0.0675,0.0658,0.0637,0.0531,0.0458,0.0346,0.0322,0.0278,0.0265,0.0261,0.025,0.0252,0.0253,0.0239,0.0239,0.0239,0.0238,0,0.0314,0.0338,0.0374,0.0434,0.0483,0.0541,0.0598,0.0627,0.0676,0.0699,0.0708,0.0659,0.0619,0.0532,0.0449,0.0364,0.0303,0.0273,0.0273,0.0259,0.0258,0.0248,0.025,0.0237,0.0237,0.0237,0.0237,0,0.0323,0.0347,0.0395,0.045,0.0511,0.0568,0.06,0.0643,0.0682,0.0721,0.0721,0.0679,0.0658,0.0542,0.0465,0.0385,0.0355,0.0306,0.0303,0.0304,0.0329,0.0337,0.0334,0,0,0,0,0,0.0328,0.0356,0.0405,0.0466,0.0527,0.0564,0.0635,0.0662,0.0709,0.0714,0.0719,0.0678,0.0576,0.0537,0.0455,0.0447,0.0337,0.0345,0.0279,0.0227,0.0229,0.0246,0,0,0,0,0,0,0.033,0.0374,0.0401,0.0472,0.0512,0.0583,0.0629,0.0661,0.0664,0.0693,0.0643,0.0632,0.0537,0.0619,0.0444,0.0424,0.0363,0.0306,0.0303,0.0226,0.0228,0.0229,0.0248,0,0,0,0,0]}]]